| time (UTC) | temp C | wind direction | speed KPH | gust KPH | rain 1hr cm | rain 24hr cm | rain mn cm | humidity % | barometer mb |
| 20260504130807 | 25 | 200 | 4.8 | 0.0 | 0.00 | 0.00 | 0.00 | 94 | 1011.0 |
| 20260504130500 | 25 | 200 | 4.8 | 0.0 | 0.00 | 0.00 | 0.00 | 94 | 1011.0 |
| 20260504130153 | 25 | 170 | 6.4 | 0.0 | 0.00 | 0.00 | 0.00 | 94 | 1012.0 |
| 20260504120316 | 24 | 0 | 3.2 | 0.0 | 0.00 | 0.00 | 0.00 | 94 | 1011.0 |
| 20260504110715 | 24 | 0 | 3.2 | 0.0 | 0.00 | 0.00 | 0.00 | 94 | 1010.0 |
| 20260504110409 | 24 | 0 | 3.2 | 0.0 | 0.00 | 0.00 | 0.00 | 94 | 1010.0 |
| 20260504100448 | 24 | 0 | 3.2 | 0.0 | 0.00 | 0.00 | 0.00 | 94 | 1010.0 |
| 20260504100136 | 24 | 0 | 3.2 | 0.0 | 0.00 | 0.00 | 0.00 | 94 | 1010.0 |
| 20260504081839 | 24 | 160 | 6.4 | 0.0 | 0.00 | 0.00 | 0.00 | 94 | 1010.0 |
| 20260504081533 | 24 | 160 | 6.4 | 0.0 | 0.00 | 0.00 | 0.00 | 94 | 1010.0 |
| 20260504081231 | 24 | 160 | 6.4 | 0.0 | 0.00 | 0.00 | 0.00 | 94 | 1010.0 |
| 20260504080929 | 24 | 0 | 3.2 | 0.0 | 0.00 | 0.00 | 0.00 | 94 | 1010.0 |
| 20260504080622 | 24 | 0 | 3.2 | 0.0 | 0.00 | 0.00 | 0.00 | 94 | 1010.0 |
| 20260504080315 | 24 | 0 | 3.2 | 0.0 | 0.00 | 0.00 | 0.00 | 94 | 1010.0 |
| 20260504070357 | 24 | 170 | 4.8 | 0.0 | 0.00 | 0.00 | 0.00 | 94 | 1010.0 |
| 20260504060143 | 25 | 0 | 3.2 | 0.0 | 0.00 | 0.00 | 0.00 | 94 | 1011.0 |
| 20260504050527 | 25 | 0 | 3.2 | 0.0 | 0.00 | 0.00 | 0.00 | 94 | 1011.0 |
| 20260504050219 | 25 | 0 | 3.2 | 0.0 | 0.00 | 0.00 | 0.00 | 94 | 1011.0 |
| 20260504045912 | 25 | 0 | 3.2 | 0.0 | 0.00 | 0.00 | 0.00 | 94 | 1011.0 |
| 20260504045610 | 25 | 0 | 3.2 | 0.0 | 0.00 | 0.00 | 0.00 | 94 | 1011.0 |
| 20260504045259 | 25 | 0 | 3.2 | 0.0 | 0.00 | 0.00 | 0.00 | 94 | 1011.0 |
| 20260504044950 | 25 | 0 | 3.2 | 0.0 | 0.00 | 0.00 | 0.00 | 94 | 1011.0 |
| 20260504044648 | 25 | 0 | 3.2 | 0.0 | 0.00 | 0.00 | 0.00 | 94 | 1011.0 |
| 20260504044345 | 25 | 0 | 3.2 | 0.0 | 0.00 | 0.00 | 0.00 | 94 | 1011.0 |
| 20260504044044 | 25 | 0 | 3.2 | 0.0 | 0.00 | 0.00 | 0.00 | 94 | 1011.0 |
| 20260504043739 | 25 | 0 | 3.2 | 0.0 | 0.00 | 0.00 | 0.00 | 94 | 1011.0 |
| 20260504043432 | 25 | 0 | 3.2 | 0.0 | 0.00 | 0.00 | 0.00 | 94 | 1011.0 |
| 20260504043124 | 25 | 0 | 3.2 | 0.0 | 0.00 | 0.00 | 0.00 | 94 | 1011.0 |
| 20260504042812 | 25 | 0 | 3.2 | 0.0 | 0.00 | 0.00 | 0.00 | 94 | 1011.0 |
| 20260504042506 | 25 | 0 | 3.2 | 0.0 | 0.00 | 0.00 | 0.00 | 94 | 1011.0 |
| 20260504042205 | 25 | 0 | 3.2 | 0.0 | 0.00 | 0.00 | 0.00 | 94 | 1011.0 |
| 20260504041900 | 25 | 0 | 3.2 | 0.0 | 0.00 | 0.00 | 0.00 | 94 | 1011.0 |
| 20260504041246 | 25 | 0 | 3.2 | 0.0 | 0.00 | 0.00 | 0.00 | 94 | 1011.0 |
| 20260504040939 | 25 | 0 | 3.2 | 0.0 | 0.00 | 0.00 | 0.00 | 94 | 1011.0 |
| 20260504040631 | 25 | 0 | 3.2 | 0.0 | 0.00 | 0.00 | 0.00 | 94 | 1011.0 |
| 20260504040325 | 25 | 120 | 6.4 | 0.0 | 0.00 | 0.00 | 0.00 | 89 | 1012.0 |
| 20260504040022 | 25 | 120 | 6.4 | 0.0 | 0.00 | 0.00 | 0.00 | 89 | 1012.0 |
| 20260504035721 | 25 | 120 | 6.4 | 0.0 | 0.00 | 0.00 | 0.00 | 89 | 1012.0 |
| 20260504035414 | 25 | 120 | 6.4 | 0.0 | 0.00 | 0.00 | 0.00 | 89 | 1012.0 |
| 20260504035113 | 25 | 120 | 6.4 | 0.0 | 0.00 | 0.00 | 0.00 | 89 | 1012.0 |
| 20260504034811 | 25 | 120 | 6.4 | 0.0 | 0.00 | 0.00 | 0.00 | 89 | 1012.0 |
| 20260504034504 | 25 | 120 | 6.4 | 0.0 | 0.00 | 0.00 | 0.00 | 89 | 1012.0 |
| 20260504034149 | 25 | 120 | 6.4 | 0.0 | 0.00 | 0.00 | 0.00 | 89 | 1012.0 |
| 20260504033829 | 25 | 120 | 6.4 | 0.0 | 0.00 | 0.00 | 0.00 | 89 | 1012.0 |
| 20260504033525 | 25 | 120 | 6.4 | 0.0 | 0.00 | 0.00 | 0.00 | 89 | 1012.0 |
| 20260504033220 | 25 | 120 | 6.4 | 0.0 | 0.00 | 0.00 | 0.00 | 89 | 1012.0 |
| 20260504032910 | 25 | 120 | 6.4 | 0.0 | 0.00 | 0.00 | 0.00 | 89 | 1011.0 |
| 20260504032604 | 25 | 120 | 6.4 | 0.0 | 0.00 | 0.00 | 0.00 | 89 | 1011.0 |
| 20260504032304 | 25 | 120 | 6.4 | 0.0 | 0.00 | 0.00 | 0.00 | 89 | 1011.0 |
| 20260504031956 | 25 | 120 | 6.4 | 0.0 | 0.00 | 0.00 | 0.00 | 89 | 1011.0 |
| 20260504031651 | 25 | 120 | 6.4 | 0.0 | 0.00 | 0.00 | 0.00 | 89 | 1011.0 |
| 20260504031347 | 25 | 120 | 6.4 | 0.0 | 0.00 | 0.00 | 0.00 | 89 | 1011.0 |
| 20260504031044 | 25 | 120 | 6.4 | 0.0 | 0.00 | 0.00 | 0.00 | 89 | 1011.0 |
| 20260504030738 | 25 | 120 | 6.4 | 0.0 | 0.00 | 0.00 | 0.00 | 89 | 1011.0 |
| 20260504030435 | 25 | 0 | 3.2 | 0.0 | 0.00 | 0.00 | 0.00 | 89 | 1011.0 |
| 20260504030127 | 25 | 0 | 3.2 | 0.0 | 0.00 | 0.00 | 0.00 | 89 | 1012.0 |
| 20260504025820 | 25 | 0 | 3.2 | 0.0 | 0.00 | 0.00 | 0.00 | 89 | 1012.0 |
| 20260504025203 | 25 | 0 | 3.2 | 0.0 | 0.00 | 0.00 | 0.00 | 89 | 1012.0 |
| 20260504024845 | 25 | 0 | 3.2 | 0.0 | 0.00 | 0.00 | 0.00 | 89 | 1012.0 |
| 20260504024542 | 25 | 0 | 3.2 | 0.0 | 0.00 | 0.00 | 0.00 | 89 | 1012.0 |
| 20260504024236 | 25 | 0 | 3.2 | 0.0 | 0.00 | 0.00 | 0.00 | 89 | 1012.0 |
| 20260504023929 | 25 | 0 | 3.2 | 0.0 | 0.00 | 0.00 | 0.00 | 89 | 1012.0 |
| 20260504023622 | 25 | 0 | 3.2 | 0.0 | 0.00 | 0.00 | 0.00 | 89 | 1012.0 |
| 20260504023311 | 25 | 0 | 3.2 | 0.0 | 0.00 | 0.00 | 0.00 | 89 | 1011.0 |
| 20260504023004 | 25 | 0 | 3.2 | 0.0 | 0.00 | 0.00 | 0.00 | 89 | 1011.0 |
| 20260504022702 | 25 | 0 | 3.2 | 0.0 | 0.00 | 0.00 | 0.00 | 89 | 1011.0 |
| 20260504022401 | 25 | 0 | 3.2 | 0.0 | 0.00 | 0.00 | 0.00 | 89 | 1011.0 |
| 20260504022054 | 25 | 0 | 3.2 | 0.0 | 0.00 | 0.00 | 0.00 | 89 | 1011.0 |
| 20260504021753 | 25 | 0 | 3.2 | 0.0 | 0.00 | 0.00 | 0.00 | 89 | 1011.0 |
| 20260504021448 | 25 | 0 | 3.2 | 0.0 | 0.00 | 0.00 | 0.00 | 89 | 1011.0 |
| 20260504021141 | 25 | 0 | 3.2 | 0.0 | 0.00 | 0.00 | 0.00 | 89 | 1011.0 |
| 20260504020835 | 25 | 0 | 3.2 | 0.0 | 0.00 | 0.00 | 0.00 | 89 | 1011.0 |
| 20260504020525 | 25 | 0 | 3.2 | 0.0 | 0.00 | 0.00 | 0.00 | 89 | 1011.0 |
| 20260504020214 | 26 | 360 | 8.0 | 0.0 | 0.00 | 0.00 | 0.00 | 89 | 1011.0 |
| 20260504015907 | 26 | 360 | 8.0 | 0.0 | 0.00 | 0.00 | 0.00 | 89 | 1011.0 |
| 20260504015559 | 26 | 360 | 8.0 | 0.0 | 0.00 | 0.00 | 0.00 | 89 | 1011.0 |
| 20260504015256 | 26 | 360 | 8.0 | 0.0 | 0.00 | 0.00 | 0.00 | 89 | 1011.0 |
| 20260504014942 | 26 | 360 | 8.0 | 0.0 | 0.00 | 0.00 | 0.00 | 89 | 1011.0 |
| 20260504014639 | 26 | 360 | 8.0 | 0.0 | 0.00 | 0.00 | 0.00 | 89 | 1011.0 |
| 20260504014332 | 26 | 360 | 8.0 | 0.0 | 0.00 | 0.00 | 0.00 | 89 | 1011.0 |
| 20260504014021 | 26 | 360 | 8.0 | 0.0 | 0.00 | 0.00 | 0.00 | 89 | 1011.0 |
| 20260504012717 | 26 | 360 | 8.0 | 0.0 | 0.00 | 0.00 | 0.00 | 89 | 1010.0 |
| 20260504012359 | 26 | 360 | 8.0 | 0.0 | 0.00 | 0.00 | 0.00 | 89 | 1010.0 |
| 20260504012053 | 26 | 360 | 8.0 | 0.0 | 0.00 | 0.00 | 0.00 | 89 | 1010.0 |
| 20260504011751 | 26 | 360 | 8.0 | 0.0 | 0.00 | 0.00 | 0.00 | 89 | 1010.0 |
| 20260504011445 | 26 | 360 | 8.0 | 0.0 | 0.00 | 0.00 | 0.00 | 89 | 1010.0 |
| 20260504010826 | 26 | 360 | 8.0 | 0.0 | 0.00 | 0.00 | 0.00 | 89 | 1010.0 |
| 20260504005852 | 27 | 330 | 6.4 | 0.0 | 0.00 | 0.00 | 0.00 | 89 | 1010.0 |
| 20260504005547 | 27 | 330 | 6.4 | 0.0 | 0.00 | 0.00 | 0.00 | 89 | 1010.0 |
| 20260504005239 | 27 | 330 | 6.4 | 0.0 | 0.00 | 0.00 | 0.00 | 89 | 1010.0 |
| 20260504004936 | 27 | 330 | 6.4 | 0.0 | 0.00 | 0.00 | 0.00 | 89 | 1010.0 |
| 20260504004626 | 27 | 330 | 6.4 | 0.0 | 0.00 | 0.00 | 0.00 | 89 | 1010.0 |
| 20260504004317 | 27 | 330 | 6.4 | 0.0 | 0.00 | 0.00 | 0.00 | 89 | 1010.0 |
| 20260504004012 | 27 | 330 | 6.4 | 0.0 | 0.00 | 0.00 | 0.00 | 89 | 1010.0 |
| 20260504003706 | 27 | 330 | 6.4 | 0.0 | 0.00 | 0.00 | 0.00 | 89 | 1010.0 |
| 20260504003359 | 27 | 330 | 6.4 | 0.0 | 0.00 | 0.00 | 0.00 | 89 | 1010.0 |
| 20260504003057 | 27 | 330 | 6.4 | 0.0 | 0.00 | 0.00 | 0.00 | 89 | 1010.0 |
| 20260504002754 | 27 | 330 | 6.4 | 0.0 | 0.00 | 0.00 | 0.00 | 89 | 1009.0 |
| 20260504002448 | 27 | 330 | 6.4 | 0.0 | 0.00 | 0.00 | 0.00 | 89 | 1009.0 |
| 20260504002135 | 27 | 330 | 6.4 | 0.0 | 0.00 | 0.00 | 0.00 | 89 | 1009.0 |
| 20260504001824 | 27 | 330 | 6.4 | 0.0 | 0.00 | 0.00 | 0.00 | 89 | 1009.0 |
| 20260504001518 | 27 | 330 | 6.4 | 0.0 | 0.00 | 0.00 | 0.00 | 89 | 1009.0 |
| 20260504001214 | 27 | 330 | 6.4 | 0.0 | 0.00 | 0.00 | 0.00 | 89 | 1009.0 |
| 20260504000915 | 29 | 100 | 4.8 | 0.0 | 0.00 | 0.00 | 0.00 | 79 | 1009.0 |
| 20260504000609 | 29 | 100 | 4.8 | 0.0 | 0.00 | 0.00 | 0.00 | 79 | 1009.0 |
| 20260504000307 | 29 | 100 | 4.8 | 0.0 | 0.00 | 0.00 | 0.00 | 79 | 1009.0 |
| 20260503235952 | 29 | 100 | 4.8 | 0.0 | 0.00 | 0.00 | 0.00 | 79 | 1009.0 |
| 20260503235645 | 29 | 100 | 4.8 | 0.0 | 0.00 | 0.00 | 0.00 | 79 | 1009.0 |
| 20260503235343 | 29 | 100 | 4.8 | 0.0 | 0.00 | 0.00 | 0.00 | 79 | 1009.0 |
| 20260503235039 | 29 | 100 | 4.8 | 0.0 | 0.00 | 0.00 | 0.00 | 79 | 1009.0 |
| 20260503234423 | 29 | 100 | 4.8 | 0.0 | 0.00 | 0.00 | 0.00 | 79 | 1009.0 |
| 20260503234121 | 29 | 100 | 4.8 | 0.0 | 0.00 | 0.00 | 0.00 | 79 | 1009.0 |
| 20260503233810 | 29 | 100 | 4.8 | 0.0 | 0.00 | 0.00 | 0.00 | 79 | 1009.0 |
| 20260503233452 | 29 | 100 | 4.8 | 0.0 | 0.00 | 0.00 | 0.00 | 79 | 1009.0 |
| 20260503233138 | 29 | 100 | 4.8 | 0.0 | 0.00 | 0.00 | 0.00 | 79 | 1009.0 |
| 20260503232756 | 29 | 100 | 4.8 | 0.0 | 0.00 | 0.00 | 0.00 | 79 | 1008.0 |
| 20260503232455 | 29 | 100 | 4.8 | 0.0 | 0.00 | 0.00 | 0.00 | 79 | 1008.0 |
| 20260503232152 | 29 | 100 | 4.8 | 0.0 | 0.00 | 0.00 | 0.00 | 79 | 1008.0 |
| 20260503231846 | 29 | 100 | 4.8 | 0.0 | 0.00 | 0.00 | 0.00 | 79 | 1008.0 |
| 20260503231540 | 29 | 100 | 4.8 | 0.0 | 0.00 | 0.00 | 0.00 | 79 | 1008.0 |
| 20260503231238 | 29 | 100 | 4.8 | 0.0 | 0.00 | 0.00 | 0.00 | 79 | 1008.0 |
| 20260503230936 | 29 | 100 | 4.8 | 0.0 | 0.00 | 0.00 | 0.00 | 79 | 1008.0 |
| 20260503230635 | 30 | 110 | 8.0 | 0.0 | 0.00 | 0.00 | 0.00 | 74 | 1008.0 |
| 20260503230032 | 30 | 110 | 8.0 | 0.0 | 0.00 | 0.00 | 0.00 | 74 | 1008.0 |
| 20260503225726 | 30 | 110 | 8.0 | 0.0 | 0.00 | 0.00 | 0.00 | 74 | 1008.0 |
| 20260503225111 | 30 | 110 | 8.0 | 0.0 | 0.00 | 0.00 | 0.00 | 74 | 1008.0 |
| 20260503224809 | 30 | 110 | 8.0 | 0.0 | 0.00 | 0.00 | 0.00 | 74 | 1008.0 |
| 20260503224508 | 30 | 110 | 8.0 | 0.0 | 0.00 | 0.00 | 0.00 | 74 | 1008.0 |
| 20260503224207 | 30 | 110 | 8.0 | 0.0 | 0.00 | 0.00 | 0.00 | 74 | 1008.0 |
| 20260503223904 | 30 | 110 | 8.0 | 0.0 | 0.00 | 0.00 | 0.00 | 74 | 1008.0 |
| 20260503223603 | 30 | 110 | 8.0 | 0.0 | 0.00 | 0.00 | 0.00 | 74 | 1008.0 |
| 20260503223256 | 30 | 110 | 8.0 | 0.0 | 0.00 | 0.00 | 0.00 | 74 | 1008.0 |
| 20260503221912 | 30 | 110 | 8.0 | 0.0 | 0.00 | 0.00 | 0.00 | 74 | 1008.0 |
| 20260503221609 | 30 | 110 | 8.0 | 0.0 | 0.00 | 0.00 | 0.00 | 74 | 1008.0 |
| 20260503221301 | 30 | 110 | 8.0 | 0.0 | 0.00 | 0.00 | 0.00 | 74 | 1008.0 |
| 20260503220331 | 31 | 0 | 1.6 | 0.0 | 0.00 | 0.00 | 0.00 | 66 | 1008.0 |
| 20260503215450 | 31 | 0 | 1.6 | 0.0 | 0.00 | 0.00 | 0.00 | 66 | 1008.0 |
| 20260503215144 | 31 | 0 | 1.6 | 0.0 | 0.00 | 0.00 | 0.00 | 66 | 1008.0 |
| 20260503214836 | 31 | 0 | 1.6 | 0.0 | 0.00 | 0.00 | 0.00 | 66 | 1008.0 |
| 20260503214533 | 31 | 0 | 1.6 | 0.0 | 0.00 | 0.00 | 0.00 | 66 | 1008.0 |
| 20260503214231 | 31 | 0 | 1.6 | 0.0 | 0.00 | 0.00 | 0.00 | 66 | 1008.0 |
| 20260503213626 | 31 | 0 | 1.6 | 0.0 | 0.00 | 0.00 | 0.00 | 66 | 1008.0 |
| 20260503213324 | 31 | 0 | 1.6 | 0.0 | 0.00 | 0.00 | 0.00 | 66 | 1007.0 |
| 20260503213018 | 31 | 0 | 1.6 | 0.0 | 0.00 | 0.00 | 0.00 | 66 | 1008.0 |
| 20260503212714 | 31 | 0 | 1.6 | 0.0 | 0.00 | 0.00 | 0.00 | 66 | 1007.0 |
| 20260503212411 | 31 | 0 | 1.6 | 0.0 | 0.00 | 0.00 | 0.00 | 66 | 1007.0 |
| 20260503212036 | 31 | 0 | 1.6 | 0.0 | 0.00 | 0.00 | 0.00 | 66 | 1008.0 |
| 20260503211735 | 31 | 0 | 1.6 | 0.0 | 0.00 | 0.00 | 0.00 | 66 | 1008.0 |
| 20260503211429 | 31 | 0 | 1.6 | 0.0 | 0.00 | 0.00 | 0.00 | 66 | 1008.0 |
| 20260503211125 | 31 | 0 | 1.6 | 0.0 | 0.00 | 0.00 | 0.00 | 66 | 1008.0 |
| 20260503210822 | 31 | 0 | 1.6 | 0.0 | 0.00 | 0.00 | 0.00 | 66 | 1008.0 |
| 20260503210520 | 32 | 0 | 4.8 | 0.0 | 0.00 | 0.00 | 0.00 | 62 | 1008.0 |
| 20260503210217 | 32 | 0 | 4.8 | 0.0 | 0.00 | 0.00 | 0.00 | 62 | 1008.0 |
| 20260503205915 | 32 | 0 | 4.8 | 0.0 | 0.00 | 0.00 | 0.00 | 62 | 1008.0 |
| 20260503205613 | 32 | 0 | 4.8 | 0.0 | 0.00 | 0.00 | 0.00 | 62 | 1008.0 |
| 20260503205312 | 32 | 0 | 4.8 | 0.0 | 0.00 | 0.00 | 0.00 | 62 | 1008.0 |
| 20260503205011 | 32 | 0 | 4.8 | 0.0 | 0.00 | 0.00 | 0.00 | 62 | 1008.0 |
| 20260503204709 | 32 | 0 | 4.8 | 0.0 | 0.00 | 0.00 | 0.00 | 62 | 1008.0 |
| 20260503204409 | 32 | 0 | 4.8 | 0.0 | 0.00 | 0.00 | 0.00 | 62 | 1008.0 |
| 20260503204105 | 32 | 0 | 4.8 | 0.0 | 0.00 | 0.00 | 0.00 | 62 | 1008.0 |
| 20260503203804 | 32 | 0 | 4.8 | 0.0 | 0.00 | 0.00 | 0.00 | 62 | 1008.0 |
| 20260503203503 | 32 | 0 | 4.8 | 0.0 | 0.00 | 0.00 | 0.00 | 62 | 1008.0 |
| 20260503203156 | 32 | 0 | 4.8 | 0.0 | 0.00 | 0.00 | 0.00 | 62 | 1008.0 |
| 20260503202853 | 32 | 0 | 4.8 | 0.0 | 0.00 | 0.00 | 0.00 | 62 | 1008.0 |
| 20260503202551 | 32 | 0 | 4.8 | 0.0 | 0.00 | 0.00 | 0.00 | 62 | 1009.0 |
| 20260503202249 | 32 | 0 | 4.8 | 0.0 | 0.00 | 0.00 | 0.00 | 62 | 1008.0 |
| 20260503201947 | 32 | 0 | 4.8 | 0.0 | 0.00 | 0.00 | 0.00 | 62 | 1008.0 |
| 20260503201638 | 32 | 0 | 4.8 | 0.0 | 0.00 | 0.00 | 0.00 | 62 | 1009.0 |
| 20260503201337 | 32 | 0 | 4.8 | 0.0 | 0.00 | 0.00 | 0.00 | 62 | 1009.0 |
| 20260503201034 | 32 | 0 | 4.8 | 0.0 | 0.00 | 0.00 | 0.00 | 62 | 1009.0 |
| 20260503200733 | 30 | 0 | 3.2 | 0.0 | 0.00 | 0.00 | 0.00 | 70 | 1009.0 |
| 20260503200429 | 30 | 0 | 3.2 | 0.0 | 0.00 | 0.00 | 0.00 | 70 | 1009.0 |
| 20260503200127 | 30 | 0 | 3.2 | 0.0 | 0.00 | 0.00 | 0.00 | 70 | 1009.0 |
| 20260503195825 | 30 | 0 | 3.2 | 0.0 | 0.00 | 0.00 | 0.00 | 70 | 1009.0 |
| 20260503195524 | 30 | 0 | 3.2 | 0.0 | 0.00 | 0.00 | 0.00 | 70 | 1009.0 |
| 20260503195222 | 30 | 0 | 3.2 | 0.0 | 0.00 | 0.00 | 0.00 | 70 | 1009.0 |
| 20260503194921 | 30 | 0 | 3.2 | 0.0 | 0.00 | 0.00 | 0.00 | 70 | 1009.0 |
| 20260503194609 | 30 | 0 | 3.2 | 0.0 | 0.00 | 0.00 | 0.00 | 70 | 1009.0 |
| 20260503194259 | 30 | 0 | 3.2 | 0.0 | 0.00 | 0.00 | 0.00 | 70 | 1009.0 |
| 20260503193953 | 30 | 0 | 3.2 | 0.0 | 0.00 | 0.00 | 0.00 | 70 | 1009.0 |
| 20260503193652 | 30 | 0 | 3.2 | 0.0 | 0.00 | 0.00 | 0.00 | 70 | 1009.0 |
| 20260503193348 | 30 | 0 | 3.2 | 0.0 | 0.00 | 0.00 | 0.00 | 70 | 1009.0 |
| 20260503193041 | 30 | 0 | 3.2 | 0.0 | 0.00 | 0.00 | 0.00 | 70 | 1009.0 |
| 20260503192736 | 30 | 0 | 3.2 | 0.0 | 0.00 | 0.00 | 0.00 | 70 | 1010.0 |
| 20260503192435 | 30 | 0 | 3.2 | 0.0 | 0.00 | 0.00 | 0.00 | 70 | 1010.0 |
| 20260503192133 | 30 | 0 | 3.2 | 0.0 | 0.00 | 0.00 | 0.00 | 70 | 1010.0 |
| 20260503191530 | 30 | 0 | 3.2 | 0.0 | 0.00 | 0.00 | 0.00 | 70 | 1010.0 |
| 20260503191229 | 30 | 0 | 3.2 | 0.0 | 0.00 | 0.00 | 0.00 | 70 | 1010.0 |
| 20260503190922 | 30 | 0 | 3.2 | 0.0 | 0.00 | 0.00 | 0.00 | 70 | 1010.0 |
| 20260503190621 | 30 | 0 | 3.2 | 0.0 | 0.00 | 0.00 | 0.00 | 70 | 1010.0 |
| 20260503190318 | 31 | 0 | 3.2 | 0.0 | 0.00 | 0.00 | 0.00 | 66 | 1010.0 |
| 20260503190016 | 31 | 0 | 3.2 | 0.0 | 0.00 | 0.00 | 0.00 | 66 | 1010.0 |
| 20260503185715 | 31 | 0 | 3.2 | 0.0 | 0.00 | 0.00 | 0.00 | 66 | 1010.0 |
| 20260503184734 | 31 | 0 | 3.2 | 0.0 | 0.00 | 0.00 | 0.00 | 66 | 1010.0 |
| 20260503184413 | 31 | 0 | 3.2 | 0.0 | 0.00 | 0.00 | 0.00 | 66 | 1010.0 |
| 20260503184111 | 31 | 0 | 3.2 | 0.0 | 0.00 | 0.00 | 0.00 | 66 | 1010.0 |
| 20260503183808 | 31 | 0 | 3.2 | 0.0 | 0.00 | 0.00 | 0.00 | 66 | 1010.0 |
| 20260503183501 | 31 | 0 | 3.2 | 0.0 | 0.00 | 0.00 | 0.00 | 66 | 1010.0 |
| 20260503183158 | 31 | 0 | 3.2 | 0.0 | 0.00 | 0.00 | 0.00 | 66 | 1010.0 |
| 20260503182852 | 31 | 0 | 3.2 | 0.0 | 0.00 | 0.00 | 0.00 | 66 | 1011.0 |
| 20260503182547 | 31 | 0 | 3.2 | 0.0 | 0.00 | 0.00 | 0.00 | 66 | 1011.0 |
| 20260503182240 | 31 | 0 | 3.2 | 0.0 | 0.00 | 0.00 | 0.00 | 66 | 1011.0 |
| 20260503181914 | 31 | 0 | 3.2 | 0.0 | 0.00 | 0.00 | 0.00 | 66 | 1011.0 |
| 20260503181258 | 31 | 0 | 3.2 | 0.0 | 0.00 | 0.00 | 0.00 | 66 | 1011.0 |
| 20260503180953 | 30 | 0 | 6.4 | 0.0 | 0.00 | 0.00 | 0.00 | 74 | 1011.0 |
| 20260503180645 | 31 | 0 | 3.2 | 0.0 | 0.00 | 0.00 | 0.00 | 66 | 1011.0 |
| 20260503180341 | 30 | 0 | 6.4 | 0.0 | 0.00 | 0.00 | 0.00 | 74 | 1011.0 |
| 20260503180032 | 30 | 0 | 6.4 | 0.0 | 0.00 | 0.00 | 0.00 | 74 | 1011.0 |
| 20260503175720 | 30 | 0 | 6.4 | 0.0 | 0.00 | 0.00 | 0.00 | 74 | 1011.0 |
| 20260503175414 | 30 | 0 | 6.4 | 0.0 | 0.00 | 0.00 | 0.00 | 74 | 1011.0 |
| 20260503175106 | 30 | 0 | 6.4 | 0.0 | 0.00 | 0.00 | 0.00 | 74 | 1011.0 |
| 20260503174756 | 30 | 0 | 6.4 | 0.0 | 0.00 | 0.00 | 0.00 | 74 | 1011.0 |
| 20260503174442 | 30 | 0 | 6.4 | 0.0 | 0.00 | 0.00 | 0.00 | 74 | 1011.0 |
| 20260503174132 | 30 | 0 | 6.4 | 0.0 | 0.00 | 0.00 | 0.00 | 74 | 1011.0 |
| 20260503173828 | 30 | 0 | 6.4 | 0.0 | 0.00 | 0.00 | 0.00 | 74 | 1011.0 |
| 20260503173523 | 30 | 0 | 6.4 | 0.0 | 0.00 | 0.00 | 0.00 | 74 | 1012.0 |
| 20260503173217 | 30 | 0 | 6.4 | 0.0 | 0.00 | 0.00 | 0.00 | 74 | 1012.0 |
| 20260503172911 | 30 | 0 | 6.4 | 0.0 | 0.00 | 0.00 | 0.00 | 74 | 1012.0 |
| 20260503172558 | 30 | 0 | 6.4 | 0.0 | 0.00 | 0.00 | 0.00 | 74 | 1012.0 |
| 20260503172248 | 30 | 0 | 6.4 | 0.0 | 0.00 | 0.00 | 0.00 | 74 | 1012.0 |
| 20260503171939 | 30 | 0 | 6.4 | 0.0 | 0.00 | 0.00 | 0.00 | 74 | 1012.0 |
| 20260503171635 | 30 | 0 | 6.4 | 0.0 | 0.00 | 0.00 | 0.00 | 74 | 1012.0 |
| 20260503171330 | 30 | 0 | 6.4 | 0.0 | 0.00 | 0.00 | 0.00 | 74 | 1012.0 |
| 20260503171026 | 28 | 120 | 4.8 | 0.0 | 0.00 | 0.00 | 0.00 | 79 | 1012.0 |
| 20260503170722 | 28 | 120 | 4.8 | 0.0 | 0.00 | 0.00 | 0.00 | 79 | 1012.0 |
| 20260503170416 | 28 | 120 | 4.8 | 0.0 | 0.00 | 0.00 | 0.00 | 79 | 1012.0 |
| 20260503170113 | 28 | 120 | 4.8 | 0.0 | 0.00 | 0.00 | 0.00 | 79 | 1012.0 |
| 20260503150724 | 25 | 170 | 4.8 | 0.0 | 0.00 | 0.00 | 0.00 | 89 | 1013.0 |
| 20260503150419 | 25 | 170 | 4.8 | 0.0 | 0.00 | 0.00 | 0.00 | 89 | 1013.0 |
| 20260503150112 | 25 | 170 | 4.8 | 0.0 | 0.00 | 0.00 | 0.00 | 89 | 1013.0 |
| 20260503140231 | 24 | 0 | 3.2 | 0.0 | 0.00 | 0.00 | 0.00 | 94 | 1013.0 |